Regional Weather Roundup
Issued by NWS

Home | Current Version | Previous Version | Graphics & Text | Print | Product List | Glossary On
Versions: 1 2 3 4 5 6 7 8 9 10 11 12 13 14 15 16 17 18 19 20 21 22 23 24 25 26 27 28 29 30 31 32 33 34 35 36 37 38 39 40 41 42 43 44 45 46 47 48 49 50
083
ASUS44 KJAN 271810
RWRMS

MISSISSIPPI HOURLY WEATHER ROUNDUP
NATIONAL WEATHER SERVICE JACKSON MS
100 PM CDT WED AUG 27 2014

NOTE: "FAIR: INDICATES FEW OR NO CLOUDS BELOW 12,000 FEET WITH NO
SIGNIFICANT WEATHER AND/OR OBSTRUCTIONS TO VISIBILITY.

MSZ001>002-007>008-010>013-018>021-025>028-034>036-271900-
NORTHWEST MISSISSIPPI

CITY           SKY/WX    TMP DP  RH WIND       PRES   REMARKS
CLARKSDALE     FAIR      90  68  48 E3        30.07F HX  93
CLEVELAND      FAIR      89  68  48 CALM      30.05F HX  93
GREENWOOD      FAIR      90  67  46 CALM      30.06F HX  93
6HR MIN TEMP:  70; 6HR MAX TEMP:  90;

GREENVILLE     FAIR      91  63  39 CALM      30.05F HX  92
6HR MIN TEMP:  67; 6HR MAX TEMP:  92;

GRENADA        MOCLDY    91  61  35 CALM      30.07F HX  91
OLIVE BRANCH   PTSUNNY   88  66  48 E9        30.09F HX  90
OXFORD         PTSUNNY   86  63  45 CALM      30.10F
TUNICA         FAIR      90  64  43 E7        30.08F HX  91
$$

MSZ003>006-009-014>017-022>024-029>033-037>039-271900-
NORTHEAST MISSISSIPPI

CITY           SKY/WX    TMP DP  RH WIND       PRES   REMARKS
BELMONT        FAIR      87  65  49 N3        30.11F
COLUMBUS AFB   FAIR      89  62  40 NE8       30.08F
6HR MIN TEMP:  67; 6HR MAX TEMP:  89; 6HR PCP: TRACE;

CORINTH        FAIR      88  66  48 VRB5      30.09F HX  90
GOLDN TRIANGLE PTSUNNY   88  63  42 N8        30.09F
STARKVILLE     MOCLDY    88  59  37 NE5       30.07F
TUPELO         PTSUNNY   88  63  43 NW6       30.08F
6HR MIN TEMP:  68; 6HR MAX TEMP:  90;

$$

MSZ040-058-271900-
CENTRAL MISSISSIPPI

CITY           SKY/WX    TMP DP  RH WIND       PRES   REMARKS
JACKSON INTL   FAIR      92  63  38 NE9       30.06F HX  93
6HR MIN TEMP:  69; 6HR MAX TEMP:  92;

JACKSON HAWKNS PTSUNNY   91  63  39 NE8       30.07F HX  92
MERIDIAN KEY   PTSUNNY   92  56  29 N9        30.07F HX  90
6HR MIN TEMP:  65; 6HR MAX TEMP:  93;

MERIDIAN NAS   FAIR      93  59  31 N10       30.07F HX  92
6HR MIN TEMP:  64; 6HR MAX TEMP:  93;

RAYMOND        FAIR      91  86  84 SE6       30.06F HX 122
VICKSBURG      FAIR      91  68  46 E9        30.05F HX  95
6HR MIN TEMP:  66; 6HR MAX TEMP:  92;

$$

MSZ059>079-271900-
SOUTH MISSISSIPPI

CITY           SKY/WX    TMP DP  RH WIND       PRES   REMARKS
BROOKHAVEN     FAIR      90  70  51 NE3       30.07F HX  95
COLUMBIA       FAIR      91  70  49 MISG      30.03F HX  97
HATTIESBURG    PTSUNNY   95  67  39 NE12      30.04F HX  99
6HR MIN TEMP:  69; 6HR MAX TEMP:  95;

MCCOMB         FAIR      88  67  49 VRB3      30.04F HX  91
6HR MIN TEMP:  71; 6HR MAX TEMP:  90;

NATCHEZ        FAIR      90  72  55 N6        30.05F HX  96
6HR MIN TEMP:  68; 6HR MAX TEMP:  90;

PINE BELT      FAIR      91  64  40 SE7       30.07F HX  93
6HR MIN TEMP:  70; 6HR MAX TEMP:  91;

$$

MSZ080>082-271900-
COASTAL MISSISSIPPI

CITY           SKY/WX    TMP DP  RH WIND       PRES   REMARKS
BILOXI         FAIR      92  72  51 SE15      30.02F HX  99
6HR MIN TEMP:  76; 6HR MAX TEMP:  93;

PASCAGOULA     CLOUDY    87  71  58 SE8       30.03F HX  93
6HR MIN TEMP:  72; 6HR MAX TEMP:  91;

GULFPORT       FAIR      90  71  53 SE15      30.02F HX  96
6HR MIN TEMP:  76; 6HR MAX TEMP:  91;

$$



USA.gov is the U.S. government's official web portal to all federal, state and local government web resources and services.